Location: Bremen
(53.0793°N, 8.8017°E)
Time: 14:21:11
(UTC+01:00)

Tiros 1 - All Passes

Search period start: 08 December 2021 00:00
Search period end: 18 December 2021 00:00
Orbit: 630 x 663 km, 48.4° (Epoch: 08 December)

Date Brightness Start Highest point End Pass type
(mag) Time Alt. Az. Time Alt. Az. Time Alt. Az.
08 Dec - 16:30:52 10° SSE 16:32:28 12° SE 16:34:04 10° ESE daylight
08 Dec - 18:09:31 10° SW 18:13:37 32° SSE 18:17:46 10° E visible
08 Dec - 19:50:48 10° WSW 19:55:17 48° S 19:59:49 10° ESE visible
08 Dec - 21:32:43 10° W 21:37:01 37° SSW 21:41:22 10° SE visible
08 Dec - 23:15:34 10° WSW 23:18:21 16° SW 23:21:08 10° S night (unlit)
09 Dec - 16:54:26 10° SSW 16:57:49 20° SSE 17:01:13 10° E visible
09 Dec - 18:34:53 10° WSW 18:39:15 42° SSE 18:43:40 10° E visible
09 Dec - 20:16:33 10° W 20:21:01 46° S 20:25:32 10° ESE visible
09 Dec - 21:58:43 10° W 22:02:36 26° SSW 22:06:31 10° SSE night (unlit)
10 Dec - 15:41:06 10° SSE 15:42:12 11° SE 15:43:17 10° SE daylight
10 Dec - 17:19:16 10° SW 17:23:19 30° SSE 17:27:24 10° E visible
10 Dec - 19:00:30 10° WSW 19:04:58 48° S 19:09:29 10° ESE visible
10 Dec - 20:42:23 10° W 20:46:42 38° SSW 20:51:03 10° SE visible
10 Dec - 22:25:07 10° WSW 22:28:03 17° SW 22:31:00 10° S night (unlit)
11 Dec - 16:04:16 10° SSW 16:07:32 19° SSE 16:10:48 10° ESE daylight
11 Dec - 17:44:35 10° SW 17:48:56 41° SSE 17:53:19 10° E visible
11 Dec - 19:26:14 10° W 19:30:41 46° S 19:35:11 10° ESE visible
11 Dec - 21:08:21 10° W 21:12:17 27° SSW 21:16:15 10° SSE visible
12 Dec - 16:29:01 10° SW 16:33:01 29° SSE 16:37:01 10° E daylight
12 Dec - 18:10:11 10° WSW 18:14:38 47° S 18:19:08 10° ESE visible
12 Dec - 19:52:03 10° W 19:56:23 39° SSW 20:00:44 10° SE visible
12 Dec - 21:34:41 10° WSW 21:37:45 17° SW 21:40:50 10° S visible
13 Dec - 15:14:07 10° S 15:17:14 18° SE 15:20:22 10° ESE daylight
13 Dec - 16:54:19 10° SW 16:58:37 39° SSE 17:02:58 10° E visible
13 Dec - 18:35:54 10° WSW 18:40:22 47° S 18:44:51 10° ESE visible
13 Dec - 20:18:00 10° W 20:21:59 28° SSW 20:25:59 10° SSE visible
14 Dec - 15:38:47 10° SSW 15:42:42 28° SSE 15:46:39 10° E daylight
14 Dec - 17:19:52 10° WSW 17:24:18 47° S 17:28:47 10° ESE visible
14 Dec - 19:01:43 10° W 19:06:04 40° SSW 19:10:26 10° SE visible
14 Dec - 20:44:16 10° WSW 20:47:28 18° SW 20:50:40 10° S visible
15 Dec - 14:23:59 10° S 14:26:56 17° SE 14:29:55 10° ESE daylight
15 Dec - 16:04:01 10° SW 16:08:18 38° SSE 16:12:37 10° E daylight
15 Dec - 17:45:35 10° WSW 17:50:02 47° S 17:54:31 10° ESE visible
15 Dec - 19:27:39 10° W 19:31:40 29° SSW 19:35:43 10° SE visible
15 Dec - 21:12:17 10° SW 21:12:47 10° SW 21:13:17 10° SW visible
16 Dec - 14:48:32 10° SSW 14:52:23 27° SSE 14:56:16 10° E daylight
16 Dec - 16:29:33 10° WSW 16:33:59 46° S 16:38:26 10° E daylight
16 Dec - 18:11:23 10° W 18:15:44 41° SSW 18:20:07 10° SE visible
16 Dec - 19:53:52 10° WSW 19:57:10 19° SSW 20:00:29 10° SSE visible
17 Dec - 13:33:51 10° S 13:36:40 16° SE 13:39:28 10° ESE daylight
17 Dec - 15:13:44 10° SW 15:17:59 37° SSE 15:22:15 10° E daylight
17 Dec - 16:55:15 10° WSW 16:59:43 48° S 17:04:11 10° ESE visible
17 Dec - 18:37:18 10° W 18:41:21 30° SSW 18:45:26 10° SE visible
17 Dec - 20:21:16 10° WSW 20:22:30 11° SW 20:23:44 10° SSW visible
